EA5JUX Weather Reports


time (UTC)temp
C
wind
direction
speed
KPH
gust
KPH
rain 1hr
cm
rain 24hr
cm
rain mn
cm
humidity
%
barometer
mb
20260510234236 18 203 0.0 3.2 0.00 0.00 0.00 78 1012.2
20260510232231 18 315 0.0 6.4 0.00 0.00 0.00 75 1012.3
20260510225223 18 248 3.2 9.7 0.00 0.00 0.00 73 1012.4
20260510204725 20 315 17.7 37.0 0.00 0.00 0.00 71 1011.5
20260510204232 20 225 17.7 37.0 0.00 0.00 0.00 71 1011.3
20260510200236 20 225 22.5 33.8 0.00 0.00 0.00 71 1010.7
20260510185234 20 225 24.1 40.2 0.00 0.00 0.00 69 1010.4
20260510180235 20 203 19.3 37.0 0.00 0.00 0.00 70 1010.2
20260510175735 20 203 17.7 33.8 0.00 0.00 0.00 69 1010.3
20260510172734 21 225 17.7 27.4 0.00 0.00 0.00 62 1011.1
20260510170228 22 225 24.1 29.0 0.00 0.00 0.00 58 1010.7
20260510164737 21 203 17.7 35.4 0.00 0.00 0.00 63 1010.6
20260510164226 21 180 14.5 35.4 0.00 0.00 0.00 62 1010.9
20260510155736 22 248 9.7 33.8 0.00 0.00 0.00 62 1011.0
20260510154732 22 270 12.9 33.8 0.00 0.00 0.00 63 1011.0
20260510152732 21 225 17.7 32.2 0.00 0.00 0.00 63 1010.8
20260510144237 22 225 8.0 25.7 0.00 0.00 0.00 65 1011.7
20260510141234 21 203 12.9 25.7 0.00 0.00 0.00 65 1011.9
20260510122225 20 203 12.9 22.5 0.00 0.00 0.00 73 1013.2
20260510121731 21 203 12.9 24.1 0.00 0.00 0.00 74 1013.1
20260510115228 20 225 17.7 29.0 0.00 0.00 0.00 74 1013.3
20260510112730 21 225 17.7 25.7 0.00 0.05 0.00 74 1013.5
20260510110734 21 180 17.7 27.4 0.00 0.13 0.00 72 1013.5
20260510102733 20 180 12.9 25.7 0.00 0.15 0.00 72 1014.0
20260510100232 21 180 12.9 17.7 0.00 0.18 0.00 69 1013.8
20260510095231 21 203 8.0 14.5 0.00 0.28 0.00 70 1014.1
20260510093228 21 68 4.8 9.7 0.00 0.28 0.00 79 1014.0
20260510090729 20 45 8.0 11.3 0.00 0.43 0.00 79 1013.8
20260510085727 20 68 4.8 6.4 0.00 0.61 0.00 78 1013.8
20260510074229 18 0 6.4 9.7 0.00 0.79 0.00 82 1013.8
20260510065228 18 45 4.8 3.2 0.00 0.86 0.00 85 1013.7
20260510062732 17 0 3.2 3.2 0.00 0.94 0.00 88 1013.5
20260510061225 16 293 1.6 3.2 0.00 0.94 0.00 89 1013.6
20260510044731 15 293 1.6 9.7 0.00 0.94 0.00 89 1013.2
20260510042734 16 270 3.2 6.4 0.00 0.94 0.00 88 1013.1
20260510025728 17 225 6.4 12.9 0.00 0.94 0.00 84 1012.8
20260510023731 17 225 3.2 12.9 0.00 0.94 0.00 84 1012.8
20260510022724 17 225 3.2 17.7 0.00 0.94 0.00 84 1012.8
20260510015233 17 248 6.4 20.9 0.00 0.94 0.00 85 1012.8
20260510003733 17 225 12.9 12.9 0.00 0.94 0.00 86 1012.8
20260510001232 17 225 8.0 12.9 0.00 0.94 0.00 84 1013.0